Weather Roundup
Issued by NWS Springfield, MO

Home | Current Version | Previous Version | Text Only | Print | Product List | Glossary On
Versions: 1 2 3 4 5 6 7 8 9 10 11 12 13 14 15 16 17 18 19 20 21 22 23 24 25 26 27 28 29 30 31 32 33 34 35 36 37 38 39 40 41 42 43 44 45 46 47 48 49 50
000
NZUS99 KSGF 201559
HRRSGF

HOURLY WEATHER
NATIONAL WEATHER SERVICE SPRINGFIELD MO
1100 AM CDT MON OCT 20 2014

......SGF CWA......

CITY           SKY/WX    TMP DP  RH WIND       PRES   REMARKS
SPRINGFIELD    CLOUDY    64  53  67 W10       30.07S
JOPLIN         SUNNY     65  54  67 SW10      30.09S
WEST PLAINS    PTSUNNY   67  53  61 VRB7      30.07S
ROLLA          SUNNY     64  53  67 W10       30.02S
OSAGE BEACH    SUNNY     66  54  63 W8        30.05R
BRANSON        CLOUDY    64  54  68 SW6       30.10R

......SURROUNDING SGF CWA......

CITY           SKY/WX    TMP DP  RH WIND       PRES   REMARKS
CHANUTE        SUNNY     67  57  70 NW6       30.07F
PARSONS        SUNNY     66  56  70 SW6       30.09S
COFFEYVILLE    SUNNY     66  56  70 SW6       30.07S
EMPORIA        SUNNY     66  57  72 N7        30.07S
SILOAM SPRINGS CLOUDY    61  52  72 SW7       30.12F
HARRISON AR    PTSUNNY   65  55  70 W9        30.09R
NEAR YELLVILLE MOSUNNY   64  52  63 W6        30.08S

......KANSAS AND MISSOURI......

CITY           SKY/WX    TMP DP  RH WIND       PRES   REMARKS
KANSAS CTY INT MOSUNNY   64  51  62 NE6       30.07R
DOWNTOWN KC    SUNNY     66  52  60 N7        30.06S
COLUMBIA       SUNNY     65  54  67 NW7       30.04R
SEDALIA        SUNNY     65  53  65 NW5       30.06R
ST JOSEPH      SUNNY     65  47  52 NE6       30.08R
ST LOUIS       MOSUNNY   67  53  61 NW10      29.99S
SPIRIT OF STL  SUNNY     66  53  63 MISG      29.99S
KIRKSVILLE     SUNNY     63  48  58 N9        30.04S
WICHITA        SUNNY     69  57  65 N8        30.08S
TOPEKA         SUNNY     65  53  65 N9        30.08S
OLATHE         SUNNY     64  54  69 NE8       30.06R

......TENNESSEE......

CITY           SKY/WX    TMP DP  RH WIND       PRES   REMARKS
MEMPHIS        MOSUNNY   65  49  56 SW8       30.10F
NASHVILLE      PTSUNNY   65  48  54 W9        30.08F

......ARKANSAS.......

CITY           SKY/WX    TMP DP  RH WIND       PRES   REMARKS
FAYETTEVILLE   LGT RAIN  59  56  89 S7        30.11F
FT SMITH       PTSUNNY   60  53  77 CALM      30.11S
LITTLE ROCK    PTSUNNY   66  50  56 W9        30.12R

......OKLAHOMA.......

CITY           SKY/WX    TMP DP  RH WIND       PRES   REMARKS
TULSA          PTSUNNY   62  55  77 S5        30.07F
PONCA CITY     SUNNY     68  57  68 CALM      30.06F
MCALESTER      CLOUDY    67  53  61 S8        30.11S
OKLAHOMA CITY  MOSUNNY   73  60  63 SW12      30.07S

......IOWA............

CITY           SKY/WX    TMP DP  RH WIND       PRES   REMARKS
DES MOINES     SUNNY     61  46  57 NW6       30.05S
QUAD CITIES    SUNNY     60  45  57 NW13      29.94S

......ILLINOIS........

CITY           SKY/WX    TMP DP  RH WIND       PRES   REMARKS
QUINCY         SUNNY     63  47  55 NW12      29.99S
CHICAGO        MOSUNNY   58  46  64 NW12      29.85R




USA.gov is the U.S. government's official web portal to all federal, state and local government web resources and services.